Time,TemperatureF,DewpointF,PressureIn,WindDirection,WindDirectionDegrees,WindSpeedMPH,WindSpeedGustMPH,Humidity,HourlyPrecipIn,Conditions,Clouds,dailyrainin,SoftwareType,DateUTC
2013-05-19 00:01:00,75.0,69.4,30.11,SE,135,6.0,11.0,83,0.00,,,0.00,meteohub,2013-05-19 04:01:00,
2013-05-19 00:02:00,75.0,69.1,30.11,SE,135,7.0,11.0,82,0.00,,,0.00,meteohub,2013-05-19 04:02:00,
2013-05-19 00:07:00,75.0,69.1,30.11,NE,45,7.0,11.0,82,0.00,,,0.00,meteohub,2013-05-19 04:07:00,
2013-05-19 00:11:00,75.0,69.1,30.11,NE,45,5.0,11.0,82,0.00,,,0.00,meteohub,2013-05-19 04:11:00,
2013-05-19 00:16:00,75.0,69.1,30.09,NE,45,5.0,10.0,82,0.00,,,0.00,meteohub,2013-05-19 04:16:00,
2013-05-19 00:21:00,75.0,69.1,30.09,NE,45,4.0,10.0,82,0.00,,,0.00,meteohub,2013-05-19 04:21:00,
2013-05-19 00:26:00,75.0,70.5,30.09,NE,45,4.0,10.0,86,0.00,,,0.00,meteohub,2013-05-19 04:26:00,
2013-05-19 00:32:00,75.0,69.8,30.09,NE,45,5.0,7.0,84,0.00,,,0.00,meteohub,2013-05-19 04:32:00,
2013-05-19 00:37:00,75.0,69.8,30.11,NE,45,0.0,7.0,84,0.00,,,0.00,meteohub,2013-05-19 04:37:00,
2013-05-19 00:42:00,75.0,69.8,30.11,NE,45,3.0,7.0,84,0.00,,,0.00,meteohub,2013-05-19 04:42:00,
2013-05-19 00:47:00,75.0,70.2,30.11,NE,45,5.0,7.0,85,0.00,,,0.00,meteohub,2013-05-19 04:47:00,
2013-05-19 00:52:00,75.0,70.2,30.11,NE,45,2.0,8.0,85,0.00,,,0.00,meteohub,2013-05-19 04:52:00,
2013-05-19 00:57:00,75.0,70.2,30.11,NE,45,3.0,8.0,85,0.00,,,0.00,meteohub,2013-05-19 04:57:00,
2013-05-19 01:02:00,75.0,70.9,30.09,NE,45,2.0,7.0,87,0.00,,,0.00,meteohub,2013-05-19 05:02:00,
2013-05-19 01:07:00,73.9,69.1,30.09,NE,45,6.0,7.0,85,0.00,,,0.00,meteohub,2013-05-19 05:07:00,
2013-05-19 01:12:00,73.9,69.4,30.09,NE,45,3.0,6.0,86,0.00,,,0.00,meteohub,2013-05-19 05:12:00,
2013-05-19 01:17:00,73.9,69.4,30.09,NE,45,2.0,6.0,86,0.00,,,0.00,meteohub,2013-05-19 05:17:00,
2013-05-19 01:22:00,73.9,69.4,30.09,NE,45,1.0,6.0,86,0.00,,,0.00,meteohub,2013-05-19 05:22:00,
2013-05-19 01:27:00,73.9,69.4,30.09,NE,45,4.0,7.0,86,0.00,,,0.00,meteohub,2013-05-19 05:27:00,
2013-05-19 01:33:00,73.9,69.4,30.09,NE,45,4.0,7.0,86,0.00,,,0.00,meteohub,2013-05-19 05:33:00,
2013-05-19 01:38:00,73.9,69.8,30.09,NE,45,3.0,7.0,87,0.00,,,0.00,meteohub,2013-05-19 05:38:00,
2013-05-19 01:43:00,73.9,69.8,30.09,NE,45,4.0,7.0,87,0.00,,,0.00,meteohub,2013-05-19 05:43:00,
2013-05-19 01:48:00,73.9,69.8,30.09,NE,45,6.0,7.0,87,0.00,,,0.00,meteohub,2013-05-19 05:48:00,
2013-05-19 01:53:00,75.0,70.9,30.09,SE,135,6.0,7.0,87,0.00,,,0.00,meteohub,2013-05-19 05:53:00,
2013-05-19 01:59:00,75.0,70.5,30.09,SE,135,6.0,7.0,86,0.00,,,0.00,meteohub,2013-05-19 05:59:00,
2013-05-19 02:04:00,75.0,70.5,30.09,SE,135,9.0,9.0,86,0.00,,,0.00,meteohub,2013-05-19 06:04:00,
2013-05-19 02:09:00,75.0,70.5,30.08,SE,135,7.0,9.0,86,0.00,,,0.00,meteohub,2013-05-19 06:09:00,
2013-05-19 02:14:00,75.0,70.2,30.08,SE,135,6.0,10.0,85,0.00,,,0.00,meteohub,2013-05-19 06:14:00,
2013-05-19 02:19:00,75.0,71.2,30.08,SE,135,7.0,10.0,88,0.00,,,0.00,meteohub,2013-05-19 06:19:00,
2013-05-19 02:25:00,75.0,70.2,30.08,SE,135,9.0,10.0,85,0.00,,,0.00,meteohub,2013-05-19 06:25:00,
2013-05-19 02:30:00,75.0,70.2,30.08,NE,45,3.0,10.0,85,0.00,,,0.00,meteohub,2013-05-19 06:30:00,
2013-05-19 02:35:00,75.0,70.5,30.08,NE,45,6.0,10.0,86,0.00,,,0.00,meteohub,2013-05-19 06:35:00,
2013-05-19 02:40:00,75.0,71.6,30.08,NE,45,3.0,9.0,89,0.00,,,0.00,meteohub,2013-05-19 06:40:00,
2013-05-19 02:45:00,73.9,69.8,30.08,NE,45,6.0,9.0,87,0.00,,,0.00,meteohub,2013-05-19 06:45:00,
2013-05-19 02:51:00,75.0,70.9,30.08,NE,45,5.0,8.0,87,0.00,,,0.00,meteohub,2013-05-19 06:51:00,
2013-05-19 02:56:00,73.9,69.8,30.06,NE,45,5.0,8.0,87,0.00,,,0.00,meteohub,2013-05-19 06:56:00,
2013-05-19 03:01:00,73.9,70.9,30.06,NE,45,8.0,8.0,90,0.00,,,0.00,meteohub,2013-05-19 07:01:00,
2013-05-19 03:06:00,73.9,69.8,30.06,NE,45,6.0,7.0,87,0.00,,,0.00,meteohub,2013-05-19 07:06:00,
2013-05-19 03:11:00,73.9,70.2,30.06,NE,45,7.0,8.0,88,0.00,,,0.00,meteohub,2013-05-19 07:11:00,
2013-05-19 03:17:00,73.9,70.5,30.06,NE,45,6.0,8.0,89,0.00,,,0.00,meteohub,2013-05-19 07:17:00,
2013-05-19 03:22:00,73.9,71.1,30.06,NE,45,3.0,8.0,91,0.00,,,0.00,meteohub,2013-05-19 07:22:00,
2013-05-19 03:27:00,73.9,70.2,30.06,NE,45,6.0,8.0,88,0.00,,,0.00,meteohub,2013-05-19 07:27:00,
2013-05-19 03:32:00,73.9,70.5,30.06,NE,45,6.0,9.0,89,0.00,,,0.00,meteohub,2013-05-19 07:32:00,
2013-05-19 03:37:00,73.9,70.5,30.06,NE,45,7.0,9.0,89,0.00,,,0.00,meteohub,2013-05-19 07:37:00,
2013-05-19 03:42:00,73.9,70.5,30.06,NE,45,6.0,8.0,89,0.00,,,0.00,meteohub,2013-05-19 07:42:00,
2013-05-19 03:47:00,73.9,70.5,30.06,NE,45,6.0,8.0,89,0.00,,,0.00,meteohub,2013-05-19 07:47:00,
2013-05-19 03:52:00,73.9,70.5,30.06,SE,135,4.0,9.0,89,0.00,,,0.00,meteohub,2013-05-19 07:52:00,
2013-05-19 03:57:00,73.9,71.4,30.06,SE,135,7.0,9.0,92,0.00,,,0.00,meteohub,2013-05-19 07:57:00,
2013-05-19 04:02:00,73.9,70.5,30.06,NE,45,8.0,10.0,89,0.00,,,0.00,meteohub,2013-05-19 08:02:00,
2013-05-19 04:08:00,73.9,70.9,30.06,SE,135,7.0,10.0,90,0.00,,,0.00,meteohub,2013-05-19 08:08:00,
2013-05-19 04:13:00,75.0,71.6,30.06,SE,135,6.0,10.0,89,0.00,,,0.00,meteohub,2013-05-19 08:13:00,
2013-05-19 04:18:00,73.9,71.1,30.06,NE,45,7.0,10.0,91,0.00,,,0.00,meteohub,2013-05-19 08:18:00,
2013-05-19 04:23:00,73.9,70.5,30.06,SE,135,8.0,10.0,89,0.00,,,0.00,meteohub,2013-05-19 08:23:00,
2013-05-19 04:28:00,73.9,69.8,30.06,NE,45,7.0,10.0,87,0.00,,,0.00,meteohub,2013-05-19 08:28:00,
2013-05-19 04:33:00,73.9,69.8,30.06,NE,45,7.0,10.0,87,0.00,,,0.00,meteohub,2013-05-19 08:33:00,
2013-05-19 04:39:00,73.9,71.1,30.06,NE,45,7.0,10.0,91,0.00,,,0.00,meteohub,2013-05-19 08:39:00,
2013-05-19 04:44:00,73.9,70.2,30.06,NE,45,6.0,10.0,88,0.00,,,0.00,meteohub,2013-05-19 08:44:00,
2013-05-19 04:49:00,73.9,70.5,30.06,NE,45,7.0,10.0,89,0.00,,,0.00,meteohub,2013-05-19 08:49:00,
2013-05-19 04:54:00,73.9,70.5,30.06,NE,45,6.0,11.0,89,0.00,,,0.00,meteohub,2013-05-19 08:54:00,
2013-05-19 04:59:00,73.9,70.5,30.06,NE,45,7.0,11.0,89,0.00,,,0.00,meteohub,2013-05-19 08:59:00,
2013-05-19 05:05:00,73.9,70.5,30.06,SE,135,6.0,11.0,89,0.00,,,0.00,meteohub,2013-05-19 09:05:00,
2013-05-19 05:10:00,73.9,70.5,30.06,SE,135,7.0,11.0,89,0.00,,,0.00,meteohub,2013-05-19 09:10:00,
2013-05-19 05:15:00,73.9,70.5,30.06,NE,45,6.0,11.0,89,0.00,,,0.00,meteohub,2013-05-19 09:15:00,
2013-05-19 05:20:00,73.9,70.2,30.06,NE,45,9.0,10.0,88,0.00,,,0.00,meteohub,2013-05-19 09:20:00,
2013-05-19 05:26:00,73.9,70.5,30.06,SE,135,7.0,10.0,89,0.00,,,0.00,meteohub,2013-05-19 09:26:00,
2013-05-19 05:31:00,73.9,70.5,30.06,NE,45,6.0,10.0,89,0.00,,,0.00,meteohub,2013-05-19 09:31:00,
2013-05-19 05:36:00,73.9,70.5,30.06,NE,45,6.0,10.0,89,0.00,,,0.00,meteohub,2013-05-19 09:36:00,
2013-05-19 05:41:00,73.9,70.5,30.06,SE,135,4.0,9.0,89,0.00,,,0.00,meteohub,2013-05-19 09:41:00,
2013-05-19 05:47:00,73.9,70.2,30.06,NE,45,7.0,9.0,88,0.00,,,0.00,meteohub,2013-05-19 09:47:00,
2013-05-19 05:52:00,73.9,70.5,30.06,SE,135,5.0,9.0,89,0.00,,,0.00,meteohub,2013-05-19 09:52:00,
2013-05-19 05:57:00,73.9,69.8,30.06,NE,45,7.0,9.0,87,0.00,,,0.00,meteohub,2013-05-19 09:57:00,
2013-05-19 06:02:00,73.9,69.8,30.06,NE,45,6.0,9.0,87,0.00,,,0.00,meteohub,2013-05-19 10:02:00,
2013-05-19 06:08:00,73.9,69.8,30.08,NE,45,9.0,9.0,87,0.00,,,0.00,meteohub,2013-05-19 10:08:00,
2013-05-19 06:13:00,73.9,70.2,30.08,SE,135,6.0,9.0,88,0.00,,,0.00,meteohub,2013-05-19 10:13:00,
2013-05-19 06:18:00,73.9,70.2,30.08,NE,45,6.0,9.0,88,0.00,,,0.00,meteohub,2013-05-19 10:18:00,
2013-05-19 06:24:00,73.9,71.1,30.08,SE,135,6.0,9.0,91,0.00,,,0.00,meteohub,2013-05-19 10:24:00,
2013-05-19 06:29:00,73.0,69.6,30.08,NE,45,6.0,9.0,89,0.00,,,0.00,meteohub,2013-05-19 10:29:00,
2013-05-19 06:34:00,73.0,69.6,30.08,NE,45,6.0,9.0,89,0.00,,,0.00,meteohub,2013-05-19 10:34:00,
2013-05-19 06:39:00,73.0,69.6,30.08,NE,45,6.0,9.0,89,0.00,,,0.00,meteohub,2013-05-19 10:39:00,
2013-05-19 06:45:00,73.0,70.5,30.08,NE,45,7.0,9.0,92,0.00,,,0.00,meteohub,2013-05-19 10:45:00,
2013-05-19 06:50:00,73.0,69.6,30.08,NE,45,6.0,9.0,89,0.00,,,0.00,meteohub,2013-05-19 10:50:00,
2013-05-19 06:55:00,73.0,69.6,30.08,NE,45,6.0,9.0,89,0.00,,,0.00,meteohub,2013-05-19 10:55:00,
2013-05-19 07:01:00,73.0,70.0,30.08,NE,45,9.0,9.0,90,0.00,,,0.00,meteohub,2013-05-19 11:01:00,
2013-05-19 07:06:00,73.0,70.9,30.09,NE,45,4.0,9.0,93,0.00,,,0.00,meteohub,2013-05-19 11:06:00,
2013-05-19 07:11:00,73.0,69.6,30.09,SE,135,7.0,9.0,89,0.00,,,0.00,meteohub,2013-05-19 11:11:00,
2013-05-19 07:16:00,73.9,70.5,30.09,SE,135,6.0,9.0,89,0.00,,,0.00,meteohub,2013-05-19 11:16:00,
2013-05-19 07:22:00,73.9,70.5,30.09,SE,135,6.0,9.0,89,0.00,,,0.00,meteohub,2013-05-19 11:22:00,
2013-05-19 07:27:00,73.9,71.4,30.09,SE,135,6.0,9.0,92,0.00,,,0.00,meteohub,2013-05-19 11:27:00,
2013-05-19 07:32:00,73.9,69.8,30.09,SE,135,4.0,9.0,87,0.00,,,0.00,meteohub,2013-05-19 11:32:00,
2013-05-19 07:37:00,75.0,70.9,30.09,SE,135,6.0,9.0,87,0.00,,,0.00,meteohub,2013-05-19 11:37:00,
2013-05-19 07:42:00,75.0,70.5,30.09,SE,135,6.0,10.0,86,0.00,,,0.00,meteohub,2013-05-19 11:42:00,
2013-05-19 07:47:00,75.0,69.8,30.09,SE,135,6.0,10.0,84,0.00,,,0.00,meteohub,2013-05-19 11:47:00,
2013-05-19 07:52:00,75.0,69.8,30.11,SE,135,9.0,10.0,84,0.00,,,0.00,meteohub,2013-05-19 11:52:00,
2013-05-19 07:57:00,75.0,69.1,30.11,SE,135,8.0,12.0,82,0.00,,,0.00,meteohub,2013-05-19 11:57:00,
2013-05-19 08:02:00,75.9,71.4,30.11,SE,135,8.0,12.0,86,0.00,,,0.00,meteohub,2013-05-19 12:02:00,
2013-05-19 08:08:00,75.9,70.3,30.11,SE,135,7.0,12.0,83,0.00,,,0.00,meteohub,2013-05-19 12:08:00,
2013-05-19 08:13:00,75.9,70.3,30.11,SE,135,6.0,12.0,83,0.00,,,0.00,meteohub,2013-05-19 12:13:00,
2013-05-19 08:18:00,75.9,70.3,30.11,SE,135,10.0,12.0,83,0.00,,,0.00,meteohub,2013-05-19 12:18:00,
2013-05-19 08:23:00,77.0,72.5,30.12,SE,135,10.0,12.0,86,0.00,,,0.00,meteohub,2013-05-19 12:23:00,
2013-05-19 08:29:00,77.0,70.7,30.12,SE,135,8.0,12.0,81,0.00,,,0.00,meteohub,2013-05-19 12:29:00,
2013-05-19 08:34:00,77.0,70.7,30.12,SE,135,7.0,12.0,81,0.00,,,0.00,meteohub,2013-05-19 12:34:00,
2013-05-19 08:39:00,77.0,70.7,30.12,SE,135,9.0,12.0,81,0.00,,,0.00,meteohub,2013-05-19 12:39:00,
2013-05-19 08:44:00,77.0,71.1,30.12,SE,135,8.0,12.0,82,0.00,,,0.00,meteohub,2013-05-19 12:44:00,
2013-05-19 08:50:00,78.1,71.1,30.12,SE,135,7.0,12.0,79,0.00,,,0.00,meteohub,2013-05-19 12:50:00,
2013-05-19 08:55:00,78.1,70.7,30.12,SE,135,5.0,12.0,78,0.00,,,0.00,meteohub,2013-05-19 12:55:00,
2013-05-19 09:02:00,78.1,70.0,30.12,SE,135,7.0,12.0,76,0.00,,,0.00,meteohub,2013-05-19 13:02:00,
2013-05-19 09:07:00,78.1,70.7,30.12,SE,135,6.0,12.0,78,0.00,,,0.00,meteohub,2013-05-19 13:07:00,
2013-05-19 09:12:00,78.1,71.1,30.13,SE,135,10.0,12.0,79,0.00,,,0.00,meteohub,2013-05-19 13:12:00,
2013-05-19 09:17:00,78.1,70.0,30.13,SE,135,8.0,12.0,76,0.00,,,0.00,meteohub,2013-05-19 13:17:00,
2013-05-19 09:22:00,79.0,70.3,30.13,SE,135,8.0,13.0,75,0.00,,,0.00,meteohub,2013-05-19 13:22:00,
2013-05-19 09:28:00,79.0,70.0,30.13,SE,135,7.0,13.0,74,0.00,,,0.00,meteohub,2013-05-19 13:28:00,
2013-05-19 09:33:00,79.0,70.7,30.13,SE,135,10.0,13.0,76,0.00,,,0.00,meteohub,2013-05-19 13:33:00,
2013-05-19 09:38:00,79.0,70.0,30.13,SE,135,9.0,13.0,74,0.00,,,0.00,meteohub,2013-05-19 13:38:00,
2013-05-19 09:43:00,79.0,70.3,30.13,SE,135,10.0,13.0,75,0.00,,,0.00,meteohub,2013-05-19 13:43:00,
2013-05-19 09:48:00,79.0,70.3,30.13,SE,135,10.0,12.0,75,0.00,,,0.00,meteohub,2013-05-19 13:48:00,
2013-05-19 09:54:00,79.0,70.0,30.13,SE,135,8.0,12.0,74,0.00,,,0.00,meteohub,2013-05-19 13:54:00,
2013-05-19 09:59:00,79.0,69.3,30.13,SE,135,9.0,12.0,72,0.00,,,0.00,meteohub,2013-05-19 13:59:00,
2013-05-19 10:04:00,79.0,69.6,30.13,SE,135,9.0,11.0,73,0.00,,,0.00,meteohub,2013-05-19 14:04:00,
2013-05-19 10:09:00,79.0,70.0,30.14,SE,135,8.0,11.0,74,0.00,,,0.00,meteohub,2013-05-19 14:09:00,
2013-05-19 10:14:00,79.0,70.0,30.14,SE,135,9.0,11.0,74,0.00,,,0.00,meteohub,2013-05-19 14:14:00,
2013-05-19 10:20:00,79.0,68.7,30.14,SE,135,7.0,12.0,71,0.00,,,0.00,meteohub,2013-05-19 14:20:00,
2013-05-19 10:25:00,80.1,68.5,30.14,SE,135,7.0,12.0,68,0.00,,,0.00,meteohub,2013-05-19 14:25:00,
2013-05-19 10:30:00,80.1,69.4,30.14,SE,135,8.0,10.0,70,0.00,,,0.00,meteohub,2013-05-19 14:30:00,
2013-05-19 10:35:00,80.1,69.4,30.14,SE,135,6.0,10.0,70,0.00,,,0.00,meteohub,2013-05-19 14:35:00,
2013-05-19 10:40:00,80.1,69.4,30.14,SE,135,7.0,10.0,70,0.00,,,0.00,meteohub,2013-05-19 14:40:00,
2013-05-19 10:46:00,80.1,68.9,30.14,SE,135,5.0,10.0,69,0.00,,,0.00,meteohub,2013-05-19 14:46:00,
2013-05-19 10:51:00,80.1,68.2,30.13,SE,135,7.0,9.0,67,0.00,,,0.00,meteohub,2013-05-19 14:51:00,
2013-05-19 10:56:00,80.1,67.6,30.13,SE,135,6.0,9.0,66,0.00,,,0.00,meteohub,2013-05-19 14:56:00,
2013-05-19 11:01:00,80.1,66.7,30.14,SE,135,7.0,10.0,64,0.00,,,0.00,meteohub,2013-05-19 15:01:00,
2013-05-19 11:06:00,80.1,67.6,30.14,SE,135,9.0,10.0,66,0.00,,,0.00,meteohub,2013-05-19 15:06:00,
2013-05-19 11:12:00,80.1,68.2,30.13,SE,135,7.0,10.0,67,0.00,,,0.00,meteohub,2013-05-19 15:12:00,
2013-05-19 11:17:00,80.1,66.7,30.13,SE,135,8.0,11.0,64,0.00,,,0.00,meteohub,2013-05-19 15:17:00,
2013-05-19 11:22:00,81.0,68.0,30.13,SE,135,6.0,11.0,65,0.00,,,0.00,meteohub,2013-05-19 15:22:00,
2013-05-19 11:27:00,81.0,67.6,30.13,SE,135,5.0,11.0,64,0.00,,,0.00,meteohub,2013-05-19 15:27:00,
2013-05-19 11:32:00,81.0,68.5,30.13,SE,135,6.0,11.0,66,0.00,,,0.00,meteohub,2013-05-19 15:32:00,
2013-05-19 11:37:00,81.0,68.9,30.13,SE,135,7.0,11.0,67,0.00,,,0.00,meteohub,2013-05-19 15:37:00,
2013-05-19 11:42:00,81.0,68.0,30.14,SE,135,4.0,11.0,65,0.00,,,0.00,meteohub,2013-05-19 15:42:00,
2013-05-19 11:47:00,81.0,68.0,30.13,SE,135,6.0,11.0,65,0.00,,,0.00,meteohub,2013-05-19 15:47:00,
2013-05-19 11:53:00,82.0,70.0,30.14,SE,135,7.0,11.0,67,0.00,,,0.00,meteohub,2013-05-19 15:53:00,
2013-05-19 11:58:00,82.0,69.6,30.14,SE,135,8.0,11.0,66,0.00,,,0.00,meteohub,2013-05-19 15:58:00,
2013-05-19 12:03:00,82.0,69.1,30.13,SE,135,4.0,11.0,65,0.00,,,0.00,meteohub,2013-05-19 16:03:00,
2013-05-19 12:08:00,82.0,68.7,30.13,SE,135,3.0,11.0,64,0.00,,,0.00,meteohub,2013-05-19 16:08:00,
2013-05-19 12:14:00,82.9,70.0,30.13,SE,135,0.0,9.0,65,0.00,,,0.00,meteohub,2013-05-19 16:14:00,
2013-05-19 12:19:00,82.9,69.4,30.13,SE,135,7.0,9.0,64,0.00,,,0.00,meteohub,2013-05-19 16:19:00,
2013-05-19 12:24:00,82.9,69.4,30.12,SE,135,7.0,9.0,64,0.00,,,0.00,meteohub,2013-05-19 16:24:00,
2013-05-19 12:29:00,82.9,70.0,30.12,SE,135,6.0,9.0,65,0.00,,,0.00,meteohub,2013-05-19 16:29:00,
2013-05-19 12:34:00,82.0,69.6,30.12,South,180,4.0,9.0,66,0.00,,,0.00,meteohub,2013-05-19 16:34:00,
2013-05-19 12:40:00,82.9,69.4,30.12,SE,135,6.0,9.0,64,0.00,,,0.00,meteohub,2013-05-19 16:40:00,
2013-05-19 12:45:00,82.0,68.7,30.12,South,180,4.0,9.0,64,0.00,,,0.00,meteohub,2013-05-19 16:45:00,
2013-05-19 12:50:00,82.9,69.4,30.12,SE,135,2.0,10.0,64,0.00,,,0.00,meteohub,2013-05-19 16:50:00,
2013-05-19 12:55:00,82.0,70.0,30.12,SW,225,12.0,12.0,67,0.00,,,0.00,meteohub,2013-05-19 16:55:00,
2013-05-19 13:00:00,82.0,70.0,30.12,SSW,202,8.0,14.0,67,0.00,,,0.00,meteohub,2013-05-19 17:00:00,
2013-05-19 13:06:00,81.0,68.9,30.12,WSW,247,9.0,14.0,67,0.00,,,0.00,meteohub,2013-05-19 17:06:00,
2013-05-19 13:11:00,81.0,69.8,30.09,SW,225,10.0,14.0,69,0.00,,,0.00,meteohub,2013-05-19 17:11:00,
2013-05-19 13:16:00,81.0,68.9,30.09,South,180,10.0,15.0,67,0.00,,,0.00,meteohub,2013-05-19 17:16:00,
2013-05-19 13:21:00,81.0,69.8,30.09,SSW,202,9.0,15.0,69,0.00,,,0.00,meteohub,2013-05-19 17:21:00,
2013-05-19 13:27:00,81.0,68.9,30.09,SSW,202,9.0,15.0,67,0.00,,,0.00,meteohub,2013-05-19 17:27:00,
2013-05-19 13:32:00,81.0,68.9,30.09,SSW,202,10.0,16.0,67,0.00,,,0.00,meteohub,2013-05-19 17:32:00,
2013-05-19 13:37:00,81.0,70.7,30.09,SW,225,8.0,16.0,71,0.00,,,0.00,meteohub,2013-05-19 17:37:00,
2013-05-19 13:42:00,81.0,68.9,30.09,SSW,202,12.0,15.0,67,0.00,,,0.00,meteohub,2013-05-19 17:42:00,
2013-05-19 13:47:00,81.0,68.5,30.09,South,180,10.0,15.0,66,0.00,,,0.00,meteohub,2013-05-19 17:47:00,
2013-05-19 13:53:00,81.0,68.9,30.09,SW,225,9.0,16.0,67,0.00,,,0.00,meteohub,2013-05-19 17:53:00,
2013-05-19 13:58:00,81.0,68.5,30.09,SSW,202,9.0,16.0,66,0.00,,,0.00,meteohub,2013-05-19 17:58:00,
2013-05-19 14:03:00,81.0,68.0,30.08,SSW,202,10.0,16.0,65,0.00,,,0.00,meteohub,2013-05-19 18:03:00,
2013-05-19 14:08:00,81.0,68.9,30.08,SW,225,8.0,16.0,67,0.00,,,0.00,meteohub,2013-05-19 18:08:00,
2013-05-19 14:13:00,81.0,68.9,30.08,SW,225,10.0,15.0,67,0.00,,,0.00,meteohub,2013-05-19 18:13:00,
2013-05-19 14:19:00,81.0,69.4,30.08,SW,225,7.0,15.0,68,0.00,,,0.00,meteohub,2013-05-19 18:19:00,
2013-05-19 14:24:00,81.0,68.5,30.08,SW,225,8.0,14.0,66,0.00,,,0.00,meteohub,2013-05-19 18:24:00,
2013-05-19 14:29:00,81.0,69.8,30.08,SW,225,11.0,14.0,69,0.00,,,0.00,meteohub,2013-05-19 18:29:00,
2013-05-19 14:34:00,81.0,70.7,30.08,SW,225,11.0,17.0,71,0.00,,,0.00,meteohub,2013-05-19 18:34:00,
2013-05-19 14:39:00,81.0,69.8,30.08,SSW,202,11.0,17.0,69,0.00,,,0.00,meteohub,2013-05-19 18:39:00,
2013-05-19 14:45:00,80.1,69.4,30.08,West,270,10.0,17.0,70,0.00,,,0.00,meteohub,2013-05-19 18:45:00,
2013-05-19 14:50:00,81.0,70.2,30.06,WSW,247,12.0,17.0,70,0.00,,,0.00,meteohub,2013-05-19 18:50:00,
2013-05-19 14:55:00,81.0,70.7,30.06,SSW,202,9.0,17.0,71,0.00,,,0.00,meteohub,2013-05-19 18:55:00,
2013-05-19 15:00:00,80.1,69.8,30.06,WSW,247,13.0,16.0,71,0.00,,,0.00,meteohub,2013-05-19 19:00:00,
2013-05-19 15:05:00,81.0,69.4,30.06,SW,225,9.0,16.0,68,0.00,,,0.00,meteohub,2013-05-19 19:05:00,
2013-05-19 15:11:00,80.1,69.4,30.06,WSW,247,10.0,16.0,70,0.00,,,0.00,meteohub,2013-05-19 19:11:00,
2013-05-19 15:16:00,80.1,71.4,30.06,West,270,11.0,16.0,75,0.00,,,0.00,meteohub,2013-05-19 19:16:00,
2013-05-19 15:21:00,80.1,71.1,30.06,WSW,247,11.0,14.0,74,0.00,,,0.00,meteohub,2013-05-19 19:21:00,
2013-05-19 15:26:00,80.1,68.9,30.06,WSW,247,10.0,14.0,69,0.00,,,0.00,meteohub,2013-05-19 19:26:00,
2013-05-19 15:31:00,80.1,69.4,30.06,WSW,247,12.0,15.0,70,0.00,,,0.00,meteohub,2013-05-19 19:31:00,
2013-05-19 15:37:00,80.1,68.9,30.04,West,270,13.0,15.0,69,0.00,,,0.00,meteohub,2013-05-19 19:37:00,
2013-05-19 15:42:00,80.1,70.7,30.04,West,270,9.0,15.0,73,0.00,,,0.00,meteohub,2013-05-19 19:42:00,
2013-05-19 15:47:00,80.1,68.9,30.06,WSW,247,9.0,15.0,69,0.00,,,0.00,meteohub,2013-05-19 19:47:00,
2013-05-19 15:52:00,80.1,69.8,30.04,West,270,11.0,15.0,71,0.00,,,0.00,meteohub,2013-05-19 19:52:00,
2013-05-19 15:57:00,80.1,70.7,30.04,WSW,247,10.0,15.0,73,0.00,,,0.00,meteohub,2013-05-19 19:57:00,
2013-05-19 16:02:00,80.1,70.7,30.04,WSW,247,11.0,15.0,73,0.00,,,0.00,meteohub,2013-05-19 20:02:00,
2013-05-19 16:07:00,80.1,70.7,30.04,West,270,11.0,15.0,73,0.00,,,0.00,meteohub,2013-05-19 20:07:00,
2013-05-19 16:12:00,80.1,70.7,30.04,West,270,9.0,13.0,73,0.00,,,0.00,meteohub,2013-05-19 20:12:00,
2013-05-19 16:17:00,80.1,70.2,30.04,West,270,11.0,13.0,72,0.00,,,0.00,meteohub,2013-05-19 20:17:00,
2013-05-19 16:22:00,80.1,69.8,30.04,West,270,9.0,13.0,71,0.00,,,0.00,meteohub,2013-05-19 20:22:00,
2013-05-19 16:27:00,80.1,69.8,30.04,WSW,247,10.0,13.0,71,0.00,,,0.00,meteohub,2013-05-19 20:27:00,
2013-05-19 16:32:00,80.1,69.4,30.04,West,270,9.0,13.0,70,0.00,,,0.00,meteohub,2013-05-19 20:32:00,
2013-05-19 16:37:00,80.1,69.4,30.04,WSW,247,12.0,13.0,70,0.00,,,0.00,meteohub,2013-05-19 20:37:00,
2013-05-19 16:42:00,80.1,69.8,30.04,West,270,7.0,13.0,71,0.00,,,0.00,meteohub,2013-05-19 20:42:00,
2013-05-19 16:47:00,81.0,71.1,30.04,West,270,10.0,13.0,72,0.00,,,0.00,meteohub,2013-05-19 20:47:00,
2013-05-19 16:52:00,80.1,70.7,30.04,West,270,10.0,13.0,73,0.00,,,0.00,meteohub,2013-05-19 20:52:00,
2013-05-19 16:57:00,80.1,70.2,30.04,WSW,247,12.0,13.0,72,0.00,,,0.00,meteohub,2013-05-19 20:57:00,
2013-05-19 17:02:00,80.1,69.8,30.04,West,270,8.0,12.0,71,0.00,,,0.00,meteohub,2013-05-19 21:02:00,
2013-05-19 17:07:00,81.0,71.1,30.04,West,270,7.0,12.0,72,0.00,,,0.00,meteohub,2013-05-19 21:07:00,
2013-05-19 17:12:00,80.1,70.2,30.03,WSW,247,9.0,12.0,72,0.00,,,0.00,meteohub,2013-05-19 21:12:00,
2013-05-19 17:17:00,80.1,70.7,30.03,West,270,10.0,13.0,73,0.00,,,0.00,meteohub,2013-05-19 21:17:00,
2013-05-19 17:22:00,80.1,71.1,30.03,WSW,247,10.0,13.0,74,0.00,,,0.00,meteohub,2013-05-19 21:22:00,
2013-05-19 17:55:00,81.0,71.1,30.01,WSW,247,9.0,-999.0,72,0.00,,,0.00,meteohub,2013-05-19 21:55:00,
2013-05-19 18:00:00,80.1,71.1,30.01,WSW,247,12.0,12.0,74,1.90,,,0.00,meteohub,2013-05-19 22:00:00,
2013-05-19 18:06:00,80.1,71.1,30.01,WSW,247,11.0,12.0,74,1.90,,,0.00,meteohub,2013-05-19 22:06:00,
2013-05-19 18:11:00,80.1,70.7,30.01,WSW,247,9.0,12.0,73,1.90,,,0.00,meteohub,2013-05-19 22:11:00,
2013-05-19 18:16:00,80.1,71.1,30.01,West,270,9.0,12.0,74,1.90,,,1.90,meteohub,2013-05-19 22:16:00,
2013-05-19 18:21:00,80.1,71.4,30.03,West,270,9.0,13.0,75,1.90,,,1.90,meteohub,2013-05-19 22:21:00,
2013-05-19 18:27:00,80.1,71.8,30.03,West,270,7.0,13.0,76,1.90,,,1.90,meteohub,2013-05-19 22:27:00,
2013-05-19 18:32:00,80.1,71.1,30.03,West,270,6.0,13.0,74,1.90,,,1.90,meteohub,2013-05-19 22:32:00,
2013-05-19 18:37:00,79.0,69.6,30.03,WSW,247,9.0,13.0,73,1.90,,,1.90,meteohub,2013-05-19 22:37:00,
2013-05-19 18:42:00,80.1,70.7,30.03,West,270,5.0,10.0,73,0.00,,,1.90,meteohub,2013-05-19 22:42:00,
2013-05-19 18:47:00,80.1,70.2,30.03,WSW,247,8.0,10.0,72,0.00,,,1.90,meteohub,2013-05-19 22:47:00,
2013-05-19 18:52:00,80.1,71.1,30.04,SW,225,9.0,10.0,74,0.00,,,1.90,meteohub,2013-05-19 22:52:00,
2013-05-19 18:57:00,80.1,71.4,30.04,WSW,247,10.0,11.0,75,0.00,,,1.90,meteohub,2013-05-19 22:57:00,
2013-05-19 19:02:00,80.1,70.7,30.04,WSW,247,8.0,11.0,73,0.00,,,1.90,meteohub,2013-05-19 23:02:00,
2013-05-19 19:07:00,80.1,71.1,30.04,West,270,5.0,11.0,74,0.00,,,1.90,meteohub,2013-05-19 23:07:00,
2013-05-19 19:12:00,80.1,71.1,30.04,WSW,247,6.0,11.0,74,0.00,,,1.90,meteohub,2013-05-19 23:12:00,
2013-05-19 19:17:00,80.1,71.4,30.04,WSW,247,5.0,11.0,75,0.00,,,1.90,meteohub,2013-05-19 23:17:00,
2013-05-19 19:22:00,79.0,70.0,30.04,West,270,7.0,9.0,74,0.00,,,1.90,meteohub,2013-05-19 23:22:00,
2013-05-19 19:27:00,80.1,71.4,30.04,West,270,6.0,9.0,75,0.00,,,1.90,meteohub,2013-05-19 23:27:00,
2013-05-19 19:32:00,80.1,71.1,30.04,West,270,7.0,12.0,74,0.00,,,1.90,meteohub,2013-05-19 23:32:00,
2013-05-19 19:37:00,80.1,71.1,30.06,WNW,292,6.0,12.0,74,0.00,,,1.90,meteohub,2013-05-19 23:37:00,
2013-05-19 19:42:00,80.1,71.1,30.06,West,270,6.0,12.0,74,0.00,,,1.90,meteohub,2013-05-19 23:42:00,
2013-05-19 19:47:00,80.1,71.4,30.06,NW,315,4.0,12.0,75,0.00,,,1.90,meteohub,2013-05-19 23:47:00,
2013-05-19 19:52:00,80.1,71.1,30.06,NNE,22,2.0,10.0,74,0.00,,,1.90,meteohub,2013-05-19 23:52:00,
2013-05-19 19:57:00,78.1,69.4,30.06,NE,45,3.0,10.0,75,0.00,,,1.90,meteohub,2013-05-19 23:57:00,
2013-05-19 20:02:00,77.0,70.7,30.06,NE,45,5.0,13.0,81,0.00,,,1.90,meteohub,2013-05-20 00:02:00,
2013-05-19 20:07:00,75.9,70.3,30.06,NE,45,2.0,13.0,83,0.00,,,1.90,meteohub,2013-05-20 00:07:00,
2013-05-19 20:12:00,75.0,69.4,30.06,NE,45,5.0,13.0,83,0.00,,,0.00,meteohub,2013-05-20 00:12:00,
2013-05-19 20:17:00,75.0,70.9,30.06,SE,135,7.0,10.0,87,0.00,,,0.00,meteohub,2013-05-20 00:17:00,
2013-05-19 20:22:00,73.9,70.5,30.06,SE,135,16.0,16.0,89,0.00,,,0.00,meteohub,2013-05-20 00:22:00,
2013-05-19 20:27:00,73.0,70.0,30.08,SE,135,9.0,10.0,90,0.00,,,0.00,meteohub,2013-05-20 00:27:00,
2013-05-19 20:32:00,72.0,68.5,30.08,NE,45,8.0,18.0,89,0.00,,,0.00,meteohub,2013-05-20 00:32:00,
2013-05-19 20:37:00,72.0,69.3,30.08,SE,135,16.0,18.0,91,0.00,,,0.00,meteohub,2013-05-20 00:37:00,
2013-05-19 20:42:00,72.0,68.2,30.08,NE,45,9.0,17.0,88,0.00,,,0.00,meteohub,2013-05-20 00:42:00,
2013-05-19 20:47:00,72.0,68.5,30.08,SE,135,9.0,17.0,89,0.00,,,0.00,meteohub,2013-05-20 00:47:00,
2013-05-19 20:52:00,72.0,68.2,30.08,NE,45,13.0,17.0,88,0.00,,,0.00,meteohub,2013-05-20 00:52:00,
2013-05-19 20:57:00,72.0,68.2,30.08,NE,45,5.0,13.0,88,0.00,,,0.00,meteohub,2013-05-20 00:57:00,
2013-05-19 21:02:00,72.0,67.8,30.06,NE,45,5.0,13.0,87,0.00,,,0.00,meteohub,2013-05-20 01:02:00,
2013-05-19 21:07:00,72.0,67.8,30.06,SE,135,5.0,13.0,87,0.00,,,0.00,meteohub,2013-05-20 01:07:00,
2013-05-19 21:12:00,73.0,70.3,30.06,SE,135,7.0,10.0,91,0.00,,,0.00,meteohub,2013-05-20 01:12:00,
2013-05-19 21:17:00,73.0,68.9,30.06,SE,135,6.0,10.0,87,0.00,,,0.00,meteohub,2013-05-20 01:17:00,
2013-05-19 21:22:00,73.0,68.5,30.08,SE,135,10.0,10.0,86,0.00,,,0.00,meteohub,2013-05-20 01:22:00,
2013-05-19 21:27:00,73.0,69.3,30.09,SE,135,4.0,10.0,88,0.00,,,0.00,meteohub,2013-05-20 01:27:00,
2013-05-19 21:32:00,73.0,69.6,30.09,SE,135,8.0,10.0,89,0.00,,,0.00,meteohub,2013-05-20 01:32:00,
2013-05-19 21:37:00,73.0,68.9,30.09,SE,135,7.0,10.0,87,0.00,,,0.00,meteohub,2013-05-20 01:37:00,
2013-05-19 21:42:00,73.0,68.9,30.08,SE,135,6.0,13.0,87,0.00,,,0.00,meteohub,2013-05-20 01:42:00,
2013-05-19 21:47:00,73.0,70.0,30.09,NE,45,5.0,13.0,90,0.00,,,0.00,meteohub,2013-05-20 01:47:00,
2013-05-19 21:52:00,73.0,68.9,30.09,SE,135,2.0,13.0,87,0.00,,,0.00,meteohub,2013-05-20 01:52:00,
2013-05-19 21:57:00,73.0,68.9,30.09,SE,135,4.0,13.0,87,0.00,,,0.00,meteohub,2013-05-20 01:57:00,
2013-05-19 22:03:00,73.0,68.9,30.09,SE,135,7.0,10.0,87,0.00,,,0.00,meteohub,2013-05-20 02:03:00,
2013-05-19 22:08:00,73.9,70.9,30.09,SE,135,6.0,10.0,90,0.00,,,0.00,meteohub,2013-05-20 02:08:00,
2013-05-19 22:13:00,73.9,69.1,30.09,SE,135,8.0,10.0,85,0.00,,,0.00,meteohub,2013-05-20 02:13:00,
2013-05-19 22:18:00,75.0,70.5,30.09,SE,135,10.0,11.0,86,0.00,,,0.00,meteohub,2013-05-20 02:18:00,
2013-05-19 22:23:00,75.0,70.5,30.09,SE,135,9.0,11.0,86,0.00,,,0.00,meteohub,2013-05-20 02:23:00,
2013-05-19 22:29:00,75.0,70.9,30.09,SE,135,6.0,11.0,87,0.00,,,0.00,meteohub,2013-05-20 02:29:00,
2013-05-19 22:34:00,75.0,70.2,30.09,SE,135,6.0,11.0,85,0.00,,,0.00,meteohub,2013-05-20 02:34:00,
2013-05-19 22:39:00,75.0,70.2,30.09,SE,135,6.0,11.0,85,0.00,,,0.00,meteohub,2013-05-20 02:39:00,
2013-05-19 22:44:00,75.0,70.2,30.09,SE,135,3.0,10.0,85,0.00,,,0.00,meteohub,2013-05-20 02:44:00,
2013-05-19 22:49:00,75.0,71.2,30.09,SE,135,3.0,10.0,88,0.00,,,0.00,meteohub,2013-05-20 02:49:00,
2013-05-19 22:55:00,75.0,70.5,30.09,SSE,157,5.0,8.0,86,0.00,,,0.00,meteohub,2013-05-20 02:55:00,
2013-05-19 23:00:00,75.0,70.2,30.09,SE,135,5.0,6.0,85,0.00,,,0.00,meteohub,2013-05-20 03:00:00,
2013-05-19 23:05:00,75.0,70.5,30.09,SE,135,5.0,6.0,86,0.00,,,0.00,meteohub,2013-05-20 03:05:00,
2013-05-19 23:10:00,75.0,71.6,30.09,SE,135,5.0,6.0,89,0.00,,,0.00,meteohub,2013-05-20 03:10:00,
2013-05-19 23:15:00,75.0,70.5,30.09,SE,135,1.0,6.0,86,0.00,,,0.00,meteohub,2013-05-20 03:15:00,
2013-05-19 23:21:00,75.0,70.5,30.09,SE,135,1.0,7.0,86,0.00,,,0.00,meteohub,2013-05-20 03:21:00,
2013-05-19 23:26:00,75.9,71.8,30.09,SE,135,2.0,7.0,87,0.00,,,0.00,meteohub,2013-05-20 03:26:00,
2013-05-19 23:31:00,75.9,72.5,30.09,NE,45,4.0,7.0,89,0.00,,,0.00,meteohub,2013-05-20 03:31:00,
2013-05-19 23:36:00,75.9,71.8,30.09,NE,45,3.0,7.0,87,0.00,,,0.00,meteohub,2013-05-20 03:36:00,
2013-05-19 23:42:00,75.9,71.8,30.09,NE,45,6.0,7.0,87,0.00,,,0.00,meteohub,2013-05-20 03:42:00,
2013-05-19 23:47:00,75.9,71.8,30.08,NE,45,6.0,7.0,87,0.00,,,0.00,meteohub,2013-05-20 03:47:00,
2013-05-19 23:52:00,75.9,71.8,30.08,NE,45,5.0,7.0,87,0.00,,,0.00,meteohub,2013-05-20 03:52:00,
2013-05-19 23:57:00,75.9,72.1,30.08,NE,45,3.0,9.0,88,0.00,,,0.00,meteohub,2013-05-20 03:57:00,